Weather History for KAUO - November, 2012

Change the Weather History Date:

Sunday, November 4, 2012

  Actual Average Record
Temperature  
Mean Temperature 62 °F -  
Max Temperature 73 °F - 84 °F (1974)
Min Temperature 50 °F - 25 °F (1963)
Degree Days  
Heating Degree Days 3    
Month to date heating degree days 16  
Since 1 July heating degree days 83  
Growing Degree Days 13 (Base 50)    
Moisture  
Dew Point 51 °F    
Average Humidity 64    
Maximum Humidity 88    
Minimum Humidity 43    
Precipitation  
Precipitation 0.00 in - 19.16 in (2004)
Month to date precipitation 0.00  
Year to date precipitation 22.13  
Sea Level Pressure  
Sea Level Pressure 30.02 in    
Wind  
Wind Speed 8 mph (West)    
Max Wind Speed 13 mph    
Max Gust Speed 16 mph    
Visibility 10 miles    
Events      
T = Trace of Precipitation, MM = Missing Value Source: NWS Daily Summary

Daily Weather History Graph

Daily Weather History Graph

Search for Another Location

Airport or City:

Trip Planner

Search our weather history database for the weather conditions in past years. The results will help you decide how hot, cold, wet, or windy it might be!

Date:

Astronomy

Nov. 04, 2012 Rise Set
Actual Time 6:02 AM CST 4:47 PM CST
Civil Twilight 5:36 AM CST 5:13 PM CST
Nautical Twilight 5:07 AM CST 5:42 PM CST
Astronomical Twilight 4:38 AM CST 6:11 PM CST
Moon 9:27 PM CST 10:41 AM CST
Length of Visible Light 11h 36m
Length of Day
10h 45m
Waning Gibbous, 72% of the Moon is Illuminated
Nov 4
Waning Gibbous
Nov 6
Last Quarter
Nov 13
New
Nov 20
First Quarter
Nov 28
Full

Hourly Weather History & Observations

Time (CST) Temp. Dew Point Humidity Pressure Visibility Wind Dir Wind Speed Gust Speed Precip Events Conditions
12:15 AM 66.2 °F 53.6 °F 64% 30.05 in 10.0 mi WSW 3.5 mph - N/A   Clear
12:35 AM 66.2 °F 53.6 °F 64% 30.05 in 10.0 mi WSW 4.6 mph - N/A   Clear
12:55 AM 64.4 °F 53.6 °F 68% 30.05 in 10.0 mi WSW 4.6 mph - N/A   Clear
1:15 AM 64.4 °F 53.6 °F 68% 30.05 in 10.0 mi WSW 3.5 mph - N/A   Clear
1:35 AM 62.6 °F 53.6 °F 72% 30.04 in 10.0 mi WSW 3.5 mph - N/A   Clear
1:15 AM 62.6 °F 53.6 °F 72% 30.04 in 10.0 mi Calm Calm - N/A   Clear
1:35 AM 60.8 °F 53.6 °F 77% 30.04 in 10.0 mi SW 3.5 mph - N/A   Clear
1:55 AM 60.8 °F 53.6 °F 77% 30.04 in 10.0 mi WSW 4.6 mph - N/A   Clear
2:15 AM 60.8 °F 53.6 °F 77% 30.03 in 10.0 mi SW 4.6 mph - N/A   Clear
2:35 AM 59.0 °F 53.6 °F 82% 30.03 in 10.0 mi SSW 3.5 mph - N/A   Clear
2:55 AM 60.8 °F 53.6 °F 77% 30.02 in 10.0 mi SSW 3.5 mph - N/A   Clear
3:15 AM 59.0 °F 53.6 °F 82% 30.02 in 10.0 mi SW 3.5 mph - N/A   Clear
3:35 AM 59.0 °F 53.6 °F 82% 30.02 in 10.0 mi SW 4.6 mph - N/A   Clear
3:55 AM 57.2 °F 53.6 °F 88% 30.02 in 10.0 mi SSW 5.8 mph - N/A   Clear
4:15 AM 57.2 °F 53.6 °F 88% 30.02 in 10.0 mi SSW 4.6 mph - N/A   Clear
4:35 AM 57.2 °F 53.6 °F 88% 30.02 in 10.0 mi WSW 5.8 mph - N/A   Clear
4:55 AM 59.0 °F 53.6 °F 82% 30.02 in 10.0 mi SW 5.8 mph - N/A   Clear
5:15 AM 59.0 °F 53.6 °F 82% 30.03 in 10.0 mi SW 5.8 mph - N/A   Clear
5:35 AM 57.2 °F 53.6 °F 88% 30.03 in 10.0 mi SW 6.9 mph - N/A   Clear
6:15 AM 57.2 °F 53.6 °F 88% 30.03 in 7.0 mi SW 5.8 mph - N/A   Clear
6:35 AM 59.0 °F 55.4 °F 88% 30.04 in 8.0 mi SW 6.9 mph - N/A   Clear
6:55 AM 59.0 °F 55.4 °F 88% 30.04 in 8.0 mi WSW 6.9 mph - N/A   Clear
7:15 AM 60.8 °F 55.4 °F 82% 30.06 in 8.0 mi SW 6.9 mph - N/A   Clear
7:35 AM 60.8 °F 55.4 °F 82% 30.06 in 10.0 mi WSW 5.8 mph - N/A   Clear
7:55 AM 62.6 °F 55.4 °F 77% 30.06 in 10.0 mi West 5.8 mph - N/A   Clear
8:15 AM 64.4 °F 55.4 °F 73% 30.06 in 10.0 mi West 6.9 mph - N/A   Clear
8:35 AM 66.2 °F 53.6 °F 64% 30.06 in 10.0 mi WNW 9.2 mph - N/A   Clear
8:55 AM 66.2 °F 53.6 °F 64% 30.06 in 10.0 mi West 9.2 mph - N/A   Clear
9:15 AM 68.0 °F 53.6 °F 60% 30.06 in 10.0 mi WNW 10.4 mph - N/A   Scattered Clouds
9:35 AM 69.8 °F 53.6 °F 56% 30.06 in 10.0 mi WNW 15.0 mph 19.6 mph N/A   Scattered Clouds
9:55 AM 71.6 °F 53.6 °F 53% 30.06 in 10.0 mi WNW 10.4 mph - N/A   Mostly Cloudy
10:15 AM 71.6 °F 53.6 °F 53% 30.05 in 10.0 mi West 8.1 mph - N/A   Partly Cloudy
10:35 AM 69.8 °F 51.8 °F 53% 30.05 in 10.0 mi West 9.2 mph - N/A   Clear
10:55 AM 71.6 °F 51.8 °F 50% 30.04 in 10.0 mi West 8.1 mph - N/A   Clear
11:15 AM 71.6 °F 53.6 °F 53% 30.02 in 10.0 mi WSW 6.9 mph - N/A   Clear
11:35 AM 71.6 °F 51.8 °F 50% 30.02 in 10.0 mi WNW 10.4 mph - N/A   Clear
11:55 AM 73.4 °F 51.8 °F 47% 30.01 in 10.0 mi NNW 11.5 mph - N/A   Clear
12:15 PM 73.4 °F 51.8 °F 47% 30.01 in 10.0 mi WNW 10.4 mph - N/A   Clear
12:35 PM 73.4 °F 51.8 °F 47% 30.00 in 10.0 mi NW 12.7 mph - N/A   Clear
12:55 PM 73.4 °F 51.8 °F 47% 30.00 in 10.0 mi NNW 12.7 mph 16.1 mph N/A   Scattered Clouds
1:15 PM 71.6 °F 51.8 °F 50% 30.00 in 10.0 mi WNW 10.4 mph - N/A   Overcast
1:35 PM 71.6 °F 50.0 °F 46% 30.00 in 10.0 mi WNW 11.5 mph - N/A   Overcast
1:55 PM 71.6 °F 48.2 °F 43% 30.00 in 10.0 mi WNW 9.2 mph - N/A   Overcast
2:15 PM 69.8 °F 48.2 °F 46% 30.00 in 10.0 mi WNW 10.4 mph 21.9 mph N/A   Overcast
2:35 PM 69.8 °F 48.2 °F 46% 30.00 in 10.0 mi West 6.9 mph - N/A   Mostly Cloudy
2:55 PM 69.8 °F 48.2 °F 46% 29.99 in 10.0 mi West 5.8 mph - N/A   Partly Cloudy
3:15 PM 69.8 °F 48.2 °F 46% 29.99 in 10.0 mi West 6.9 mph - N/A   Clear
3:35 PM 69.8 °F 48.2 °F 46% 29.99 in 10.0 mi West 10.4 mph - N/A   Clear
3:55 PM 69.8 °F 48.2 °F 46% 29.99 in 10.0 mi West 8.1 mph - N/A   Clear
4:15 PM 68.0 °F 48.2 °F 49% 29.99 in 10.0 mi WNW 6.9 mph - N/A   Clear
4:35 PM 68.0 °F 48.2 °F 49% 29.99 in 10.0 mi WNW 9.2 mph - N/A   Clear
4:55 PM 66.2 °F 48.2 °F 52% 29.99 in 10.0 mi WNW 8.1 mph - N/A   Clear
5:15 PM 64.4 °F 50.0 °F 59% 29.99 in 10.0 mi WNW 5.8 mph - N/A   Clear
5:35 PM 64.4 °F 50.0 °F 59% 30.00 in 10.0 mi West 5.8 mph - N/A   Clear
5:55 PM 64.4 °F 51.8 °F 64% 30.00 in 10.0 mi WNW 6.9 mph - N/A   Clear
6:15 PM 62.6 °F 51.8 °F 68% 30.01 in 10.0 mi WNW 5.8 mph - N/A   Scattered Clouds
6:35 PM 62.6 °F 50.0 °F 63% 30.01 in 10.0 mi NW 8.1 mph - N/A   Mostly Cloudy
6:55 PM 62.6 °F 50.0 °F 63% 30.01 in 10.0 mi NW 8.1 mph - N/A   Partly Cloudy
7:15 PM 62.6 °F 50.0 °F 63% 30.01 in 10.0 mi NW 8.1 mph - N/A   Mostly Cloudy
7:35 PM 60.8 °F 48.2 °F 63% 30.01 in 10.0 mi NNW 9.2 mph - N/A   Mostly Cloudy
7:55 PM 60.8 °F 44.6 °F 55% 30.02 in 10.0 mi North 9.2 mph - N/A   Clear
8:15 PM 59.0 °F 44.6 °F 59% 30.03 in 10.0 mi NNW 8.1 mph - N/A   Clear
8:35 PM 57.2 °F 42.8 °F 59% 30.03 in 10.0 mi NNW 6.9 mph - N/A   Clear
8:55 PM 57.2 °F 42.8 °F 59% 30.03 in 10.0 mi NNW 6.9 mph - N/A   Clear
9:15 PM 55.4 °F 42.8 °F 63% 30.03 in 10.0 mi NNW 6.9 mph - N/A   Clear
9:35 PM 55.4 °F 42.8 °F 63% 30.03 in 10.0 mi NNW 8.1 mph - N/A   Clear
9:55 PM 53.6 °F 42.8 °F 67% 30.03 in 10.0 mi NNW 10.4 mph - N/A   Clear
10:15 PM 53.6 °F 39.2 °F 58% 30.03 in 10.0 mi NNW 8.1 mph - N/A   Clear
10:35 PM 51.8 °F 39.2 °F 62% 30.03 in 10.0 mi NNW 10.4 mph - N/A   Clear